Tracking 19242 objects as of 16-Aug-2018
HD Live streaming from Space Station
objects crossing your sky now

MSG 1 DEB (BAFFLE COVER)

Track MSG 1 DEB (BAFFLE COVER) now!


NORAD ID: 39999
Int'l Code: 2002-040F
Perigee: 34,942.3 km
Apogee: 35,705.2 km
Inclination: 9.8 °
Period: 1,412.2 minutes
Semi major axis: 41694 km
RCS: 0.003 m2 (small)
Launch date: August 28, 2002
Source: European Organisation for the Exploitation of Meteorological Satellites (EUME)
Launch site: FRENCH GUIANA (FRGUI)

Note: This is SATELLITE DEBRIS
aabbcc
Your satellite tracking list
Your tracking list is empty




NASA's NSSDC Master Catalog

Two Line Element Set (TLE):
1 39999U 02040F   18227.29041932 -.00000202 +00000-0 +00000-0 0  9990
2 39999 009.8125 032.8171 0091487 055.5450 218.3463 01.01971994012899
Source of the keplerian elements: AFSPC